Location: Newark
(48.2308°N, 120.8549°W)
Time: 01:19:41
(UTC+00:00)

Transit 2A Rocket - Pass Details

Date: 03 June 2020
Orbit: 584 x 919 km, 66.7° (Epoch: 13 July)

Event Time Altitude Azimuth Distance (km) Brightness Sun altitude
Rises 13:41:45 0° 325° (NW) 3,491 8.2 13.3°
Reaches altitude 10° 13:44:14 10° 327° (NNW) 2,578 7.6 13.7°
Maximum altitude 13:50:18 73° 53° (NE) 960 6.1 14.7°
Drops below altitude 10° 13:56:25 10° 138° (SE) 2,601 8.2 15.7°
Sets 13:58:56 0° 140° (SE) 3,524 8.8 16.1°
